Weather History for Perry, FL

Change the Weather History Date:

Wednesday, February 27, 2013

  Actual Average (KCTY) Record (KCTY)
Temperature  
Mean Temperature 55 °F 59 °F  
Max Temperature 66 °F 73 °F 84 °F (2001)
Min Temperature 44 °F 45 °F 30 °F (2002)
Degree Days  
Heating Degree Days 10 7  
Month to date heating degree days 234  
Since 1 July heating degree days 1112  
Cooling Degree Days 0 1  
Month to date cooling degree days 21  
Year to date cooling degree days 32  
Growing Degree Days 5 (Base 50)    
Moisture  
Dew Point 40 °F    
Average Humidity 60    
Maximum Humidity 90    
Minimum Humidity 26    
Precipitation  
Precipitation 0.00 in 0.16 in 1.47 in (2003)
Month to date precipitation 3.09  
Year to date precipitation 7.13  
Sea Level Pressure  
Sea Level Pressure 29.95 in    
Wind  
Wind Speed 6 mph (West)    
Max Wind Speed 14 mph    
Max Gust Speed -    
Visibility 10 miles    
Events      
T = Trace of Precipitation, MM = Missing Value Source: NWS Daily Summary

Daily Weather History Graph

Daily Weather History Graph

Search for Another Location

Airport:

Trip Planner

Search our weather history database for the weather conditions in past years. The results will help you decide how hot, cold, wet, or windy it might be!

Date:

Astronomy

Feb. 27, 2013 Rise Set
Actual Time 7:02 AM EST 6:32 PM EST
Civil Twilight 6:38 AM EST 6:56 PM EST
Nautical Twilight 6:10 AM EST 7:24 PM EST
Astronomical Twilight 5:42 AM EST 7:51 PM EST
Moon 8:37 PM EST (2/27) 7:48 AM EST (2/27)
Length of Visible Light 12h 18m
Length of Day
11h 30m
Waning Gibbous, 96% of the Moon is Illuminated
Feb 27
Waning Gibbous
Mar 4
Last Quarter
Mar 11
New
Mar 19
First Quarter
Mar 27
Full

Hourly Weather History & Observations

Time (EST) Temp. Dew Point Humidity Pressure Visibility Wind Dir Wind Speed Gust Speed Precip Events Conditions
12:15 AM 55.4 °F 46.4 °F 72% 29.89 in 10.0 mi West 6.9 mph - N/A   Scattered Clouds
12:35 AM 55.4 °F 46.4 °F 72% 29.90 in 10.0 mi WSW 5.8 mph - N/A   Scattered Clouds
12:53 AM 55.0 °F 48.9 °F 80% 29.89 in - West 6.9 mph - N/A   Unknown
12:55 AM 55.4 °F 46.4 °F 72% 29.90 in 10.0 mi West 5.8 mph - N/A   Clear
1:15 AM 53.6 °F 46.4 °F 77% 29.90 in 10.0 mi WNW 8.1 mph - N/A   Scattered Clouds
1:35 AM 53.6 °F 46.4 °F 77% 29.90 in 10.0 mi WNW 6.9 mph - N/A   Clear
1:53 AM 53.1 °F 46.9 °F 80% 29.90 in - WNW 5.8 mph - N/A   Unknown
1:55 AM 53.6 °F 46.4 °F 77% 29.91 in 10.0 mi WNW 5.8 mph - N/A   Clear
2:15 AM 53.6 °F 46.4 °F 77% 29.90 in 10.0 mi West 5.8 mph - N/A   Clear
2:35 AM 53.6 °F 46.4 °F 77% 29.91 in 10.0 mi WNW 8.1 mph - N/A   Clear
2:53 AM 54.0 °F 46.9 °F 77% 29.89 in - WNW 8.1 mph - N/A   Unknown
2:55 AM 53.6 °F 44.6 °F 72% 29.90 in 10.0 mi WNW 9.2 mph - N/A   Clear
3:15 AM 53.6 °F 44.6 °F 72% 29.91 in 10.0 mi West 8.1 mph - N/A   Clear
3:35 AM 53.6 °F 44.6 °F 72% 29.91 in 10.0 mi WNW 9.2 mph - N/A   Clear
3:53 AM 53.1 °F 46.0 °F 77% 29.90 in - WNW 8.1 mph - N/A   Unknown
3:55 AM 53.6 °F 44.6 °F 72% 29.92 in 10.0 mi WNW 9.2 mph - N/A   Clear
4:15 AM 53.6 °F 42.8 °F 67% 29.91 in 10.0 mi NW 10.4 mph - N/A   Clear
4:35 AM 51.8 °F 42.8 °F 71% 29.91 in 10.0 mi NW 8.1 mph - N/A   Clear
4:53 AM 51.1 °F 45.0 °F 80% 29.91 in - NW 9.2 mph - N/A   Unknown
4:55 AM 51.8 °F 42.8 °F 71% 29.92 in 10.0 mi NW 8.1 mph - N/A   Clear
5:15 AM 50.0 °F 42.8 °F 76% 29.92 in 10.0 mi NW 8.1 mph - N/A   Clear
5:35 AM 50.0 °F 42.8 °F 76% 29.92 in 10.0 mi NW 5.8 mph - N/A   Clear
5:53 AM 48.9 °F 44.1 °F 83% 29.92 in - NW 5.8 mph - N/A   Unknown
5:55 AM 50.0 °F 42.8 °F 76% 29.93 in 10.0 mi NNW 5.8 mph - N/A   Clear
6:15 AM 50.0 °F 42.8 °F 76% 29.93 in 10.0 mi NW 5.8 mph - N/A   Clear
6:35 AM 48.2 °F 42.8 °F 82% 29.94 in 10.0 mi NW 3.5 mph - N/A   Clear
6:53 AM 46.0 °F 43.0 °F 89% 29.94 in - Calm Calm - N/A   Unknown
6:55 AM 46.4 °F 41.0 °F 81% 29.95 in 10.0 mi Calm Calm - N/A   Clear
7:15 AM 44.6 °F 41.0 °F 87% 29.95 in 10.0 mi Calm Calm - N/A   Clear
7:35 AM 44.6 °F 41.0 °F 87% 29.97 in 10.0 mi Calm Calm - N/A   Clear
7:53 AM 48.9 °F 46.0 °F 90% 29.96 in - Calm Calm - N/A   Unknown
7:55 AM 48.2 °F 44.6 °F 87% 29.98 in 10.0 mi Calm Calm - N/A   Clear
8:15 AM 50.0 °F 44.6 °F 82% 29.99 in 10.0 mi NW 4.6 mph - N/A   Clear
8:35 AM 51.8 °F 41.0 °F 67% 30.00 in 10.0 mi NNW 3.5 mph - N/A   Clear
8:53 AM 54.0 °F 41.0 °F 62% 30.00 in - NNW 5.8 mph - N/A   Unknown
8:55 AM 53.6 °F 37.4 °F 54% 30.01 in 10.0 mi North 5.8 mph - N/A   Clear
9:15 AM 53.6 °F 35.6 °F 51% 30.01 in 10.0 mi North 5.8 mph - N/A   Clear
9:35 AM 55.4 °F 35.6 °F 47% 30.02 in 10.0 mi NW 11.5 mph - N/A   Clear
9:53 AM 55.9 °F 39.9 °F 55% 30.01 in - WNW 5.8 mph - N/A   Unknown
10:15 AM 57.2 °F 33.8 °F 41% 30.02 in 10.0 mi ENE 3.5 mph - N/A   Clear
10:35 AM 55.4 °F 33.8 °F 44% 30.02 in 10.0 mi NE 3.5 mph - N/A   Clear
10:53 AM 57.9 °F 41.0 °F 53% 30.00 in - WSW 3.5 mph - N/A   Unknown
10:55 AM 57.2 °F 33.8 °F 41% 30.02 in 10.0 mi Calm Calm - N/A   Clear
11:15 AM 59.0 °F 33.8 °F 39% 30.01 in 10.0 mi ENE 3.5 mph - N/A   Clear
11:53 AM 62.1 °F 37.9 °F 41% 29.99 in - Variable 3.5 mph - N/A   Unknown
11:55 AM 60.8 °F 30.2 °F 31% 30.01 in 10.0 mi North 4.6 mph - N/A   Clear
12:15 PM 60.8 °F 30.2 °F 31% 30.00 in 10.0 mi NW 6.9 mph - N/A   Clear
12:35 PM 62.6 °F 30.2 °F 30% 29.99 in 10.0 mi Calm Calm - N/A   Clear
12:53 PM 64.0 °F 39.0 °F 40% 29.97 in - WNW 5.8 mph - N/A   Unknown
12:55 PM 62.6 °F 30.2 °F 30% 29.98 in 10.0 mi WNW 5.8 mph - N/A   Clear
1:15 PM 64.4 °F 28.4 °F 26% 29.98 in 10.0 mi West 5.8 mph - N/A   Clear
1:35 PM 64.4 °F 28.4 °F 26% 29.97 in 10.0 mi NW 5.8 mph - N/A   Clear
1:53 PM 64.9 °F 39.0 °F 39% 29.95 in - Variable 5.8 mph - N/A   Unknown
1:55 PM 64.4 °F 30.2 °F 28% 29.96 in 10.0 mi West 6.9 mph - N/A   Clear
2:15 PM 64.4 °F 30.2 °F 28% 29.95 in 10.0 mi West 8.1 mph - N/A   Clear
2:35 PM 66.2 °F 32.0 °F 28% 29.95 in 10.0 mi WSW 13.8 mph - N/A   Clear
2:53 PM 64.0 °F 43.0 °F 46% 29.93 in - SW 12.7 mph - N/A   Unknown
2:55 PM 64.4 °F 33.8 °F 32% 29.95 in 10.0 mi WSW 10.4 mph - N/A   Clear
3:15 PM 62.6 °F 35.6 °F 37% 29.95 in 10.0 mi SW 10.4 mph - N/A   Clear
3:35 PM 62.6 °F 35.6 °F 37% 29.95 in 10.0 mi WSW 11.5 mph - N/A   Clear
3:53 PM 63.0 °F 43.0 °F 48% 29.93 in - WSW 9.2 mph - N/A   Unknown
3:55 PM 62.6 °F 33.8 °F 34% 29.94 in 10.0 mi WSW 11.5 mph - N/A   Clear
4:15 PM 60.8 °F 33.8 °F 36% 29.94 in 10.0 mi West 10.4 mph - N/A   Clear
4:35 PM 60.8 °F 33.8 °F 36% 29.95 in 10.0 mi WSW 10.4 mph - N/A   Clear
4:53 PM 60.1 °F 43.0 °F 53% 29.94 in - WSW 10.4 mph - N/A   Unknown
4:55 PM 60.8 °F 35.6 °F 39% 29.95 in 10.0 mi West 11.5 mph - N/A   Clear
5:15 PM 59.0 °F 37.4 °F 45% 29.95 in 10.0 mi WSW 11.5 mph - N/A   Clear
5:35 PM 59.0 °F 39.2 °F 48% 29.95 in 10.0 mi West 10.4 mph - N/A   Clear
5:53 PM 57.9 °F 44.1 °F 60% 29.94 in - SW 9.2 mph - N/A   Unknown
5:55 PM 59.0 °F 41.0 °F 51% 29.95 in 10.0 mi WSW 8.1 mph - N/A   Clear
6:15 PM 57.2 °F 41.0 °F 55% 29.96 in 10.0 mi West 6.9 mph - N/A   Clear
6:35 PM 57.2 °F 41.0 °F 55% 29.95 in 10.0 mi WSW 5.8 mph - N/A   Clear
6:53 PM 55.9 °F 45.0 °F 67% 29.95 in - SSW 4.6 mph - N/A   Unknown
6:55 PM 55.4 °F 42.8 °F 63% 29.96 in 10.0 mi SW 3.5 mph - N/A   Clear
7:15 PM 55.4 °F 42.8 °F 63% 29.96 in 10.0 mi Calm Calm - N/A   Clear
7:35 PM 55.4 °F 42.8 °F 63% 29.96 in 10.0 mi Calm Calm - N/A   Clear
7:53 PM 55.0 °F 46.0 °F 72% 29.95 in - Calm Calm - N/A   Unknown
7:55 PM 55.4 °F 42.8 °F 63% 29.97 in 10.0 mi Calm Calm - N/A   Clear
8:15 PM 53.6 °F 44.6 °F 72% 29.97 in 10.0 mi Calm Calm - N/A   Clear
8:35 PM 53.6 °F 44.6 °F 72% 29.97 in 10.0 mi SW 4.6 mph - N/A   Clear
8:53 PM 51.1 °F 45.0 °F 80% 29.96 in - WSW 5.8 mph - N/A   Unknown
9:15 PM 53.6 °F 42.8 °F 67% 29.98 in 10.0 mi West 5.8 mph - N/A   Clear
9:35 PM 53.6 °F 41.0 °F 62% 29.99 in 10.0 mi West 6.9 mph - N/A   Clear
9:53 PM 54.0 °F 41.0 °F 62% 29.99 in - West 8.1 mph - N/A   Unknown
9:55 PM 53.6 °F 37.4 °F 54% 30.00 in 10.0 mi West 6.9 mph - N/A   Clear
10:15 PM 53.6 °F 37.4 °F 54% 30.00 in 10.0 mi West 8.1 mph - N/A   Clear
10:35 PM 53.6 °F 37.4 °F 54% 30.00 in 10.0 mi West 6.9 mph - N/A   Clear
10:53 PM 53.1 °F 42.1 °F 66% 29.98 in - WSW 5.8 mph - N/A   Unknown
11:15 PM 51.8 °F 37.4 °F 58% 29.99 in 10.0 mi West 3.5 mph - N/A   Clear
11:35 PM 51.8 °F 39.2 °F 62% 29.98 in 10.0 mi Calm Calm - N/A   Clear
11:53 PM 52.0 °F 42.1 °F 69% 29.97 in - Calm Calm - N/A   Unknown
11:55 PM 51.8 °F 39.2 °F 62% 29.98 in 10.0 mi Calm Calm - N/A   Clear